Location: Quaker Farms
(41.4276°N, 73.1557°W)
Time: 22:31:32
(UTC+00:00)

Vanguard 1 - Pass Details

Date: 18 June 2021
Orbit: 651 x 3832 km, 34.2° (Epoch: 25 July)

Event Time Altitude Azimuth Distance (km) Brightness Sun altitude
Rises 06:15:48 0° 272° (W) 7,461 14.4 -22.4°
Reaches altitude 10° 06:21:30 10° 270° (W) 6,056 13.9 -22.0°
Maximum altitude 06:37:49 56° 198° (SSW) 2,325 11.5 -20.8°
Drops below altitude 10° 06:46:38 10° 123° (ESE) 3,428 12.8 -20.1°
Sets 06:48:58 0° 118° (ESE) 4,117 13.3 -19.9°
